ZHONGXING-6C

Last updated on Thu Oct 30 2025 00:02:51 GMT+0000 (Coordinated Universal Time)

1 44067U 19012A 25302.49690450 -.00000326 00000+0 00000+0 0 9993 2 44067 0.0367 296.8727 0006068 132.2287 278.2887 1.00268990 24424
UTC large
Height (km)
Speed (km/s)
/
Latitude / Longitude
Inclination (degrees)
Orbital Period (minutes)
Azimuth
Elevation
Range (km)
Doppler Factor

Next 0 passes for location: London (51.5072 / 0.1276)

Sorry there are no passes over London.